User: anonymous   Login
Location: Unspecified
(0.0000°N, 0.0000°E)
Time: 18:53:57
(UTC+00:00)
Language:

ITAMSAT 1 - Orbit

View from above orbital plane
View from above orbital plane
View from above satellite
View from above satellite

Ground track
Ground track

The orbit data is extracted from the following two-line orbital elements,

1 22826U 93061D   19340.87930207 -.00000002 +00000-0 +17264-4 0  9999
2 22826 098.9103 333.5065 0008462 203.2329 156.8471 14.30407225366373
Epoch (UTC): 06 December 2019 21:06:11
Eccentricity: 0.0008462
inclination: 98.9103°
perigee height: 784 km
apogee height: 796 km
right ascension of ascending node: 333.5065°
argument of perigee: 203.2329°
revolutions per day: 14.30407225
mean anomaly at epoch: 156.8471°
orbit number at epoch: 36637

The dashed part of the orbit path shows where the satellite is in the earth's shadow,  

DLR